Hopewell, New Jersey, United States (08525)
Lat: 40.39N, Lon: 74.76W
Wx Zone: NJZ015
Local Info
Past Weather Observations for Thursday, March 26, 2015

NOTE: This archive is for the closest National Weather Service station to Hopewell. Information may differ from the station used for current weather conditions.

Click here for Long-term Archive

Time Weather Temperature Dewpoint Humidity Pressure Winds Precip Visibility
23:53
Overcast
45°F / 7°C 39°F / 4°C 81% 29.68 in
(1005 mb)
NW 4.6 mph
(NW 7 kph)
0.00 in
(0.00 mm)
10SM
22:53
Overcast
Light Rain
46°F / 8°C 43°F / 6°C 87% 29.68 in
(1005 mb)
NW 6.9 mph
(NW 11 kph)
0.02 in
(0.51 mm)
10SM
22:23
Overcast
Light Rain
48°F / 9°C 43°F / 6°C 82% 29.65 in
(1004 mb)
NW 5.8 mph
(NW 9 kph)
0.01 in
(0.25 mm)
10SM
21:53
Overcast
Light Rain
48°F / 9°C 45°F / 7°C 87% 29.65 in
(1004 mb)
NW 5.8 mph
(NW 9 kph)
0.05 in
(1.27 mm)
10SM
20:53
Overcast
Rain
52°F / 11°C 48°F / 9°C 88% 29.65 in
(1004 mb)
NNW 9.2 mph
(NNW 15 kph)
0.28 in
(7.11 mm)
4SM
20:22
Overcast
Light Rain
52°F / 11°C 48°F / 9°C 88% 29.62 in
(1003 mb)
NNW 10.4 mph
(NNW 17 kph)
0.21 in
(5.33 mm)
3SM
20:15
Overcast
Heavy Rain
54°F / 12°C 48°F / 9°C 82% 29.62 in
(1003 mb)
N 8.1 mph
(N 13 kph)
0.20 in
(5.08 mm)
1 1/2SM
20:08
Overcast
Heavy Rain
54°F / 12°C 50°F / 10°C 88% 29.62 in
(1003 mb)
N 8.1 mph
(N 13 kph)
0.13 in
(3.30 mm)
2SM
20:05
Overcast
Heavy Rain
54°F / 12°C 50°F / 10°C 88% 29.65 in
(1004 mb)
NNW 9.2 mph
(NNW 15 kph)
0.09 in
(2.29 mm)
3SM
19:53
Overcast
Heavy Rain
55°F / 13°C 52°F / 11°C 88% 29.62 in
(1003 mb)
N 12.7 mph
(N 20 kph)
0.07 in
(1.78 mm)
2 1/2SM
19:19
Mostly Cloudy
Fog And Mist
52°F / 11°C 50°F / 10°C 94% 29.59 in
(1002 mb)
NNW 8.1 mph
(NNW 13 kph)
- 3SM
18:59
Mostly Cloudy
Fog And Mist
52°F / 11°C 50°F / 10°C 94% 29.56 in
(1001 mb)
NW 3.5 mph
(NW 6 kph)
- 1 3/4SM
18:53
Overcast
Fog And Mist
54°F / 12°C 50°F / 10°C 88% 29.56 in
(1001 mb)
Calm - 3SM
18:46
Overcast
Fog And Mist
52°F / 11°C 50°F / 10°C 94% 29.56 in
(1001 mb)
Calm - 2 1/2SM
18:14
Overcast
Fog And Mist
54°F / 12°C 52°F / 11°C 94% 29.59 in
(1002 mb)
Calm - 3SM
18:02
Mostly Cloudy
Fog And Mist
54°F / 12°C 50°F / 10°C 88% 29.56 in
(1001 mb)
NW 6.9 mph
(NW 11 kph)
- 2 1/2SM
17:53
Mostly Cloudy
Fog And Mist
54°F / 12°C 52°F / 11°C 94% 29.56 in
(1001 mb)
Calm - 3SM
17:49
Partly Cloudy
Fog And Mist
54°F / 12°C 52°F / 11°C 94% 29.56 in
(1001 mb)
Calm - 3SM
16:53
Overcast
Fog And Mist
55°F / 13°C 52°F / 11°C 88% 29.59 in
(1002 mb)
Calm - 4SM
16:46
Overcast
Fog And Mist
54°F / 12°C 50°F / 10°C 88% 29.62 in
(1003 mb)
Calm - 4SM
15:53
Overcast
Fog And Mist
52°F / 11°C 48°F / 9°C 88% 29.65 in
(1004 mb)
NNW 5.8 mph
(NNW 9 kph)
- 3SM
15:49
Overcast
Fog And Mist
52°F / 11°C 48°F / 9°C 88% 29.65 in
(1004 mb)
NW 4.6 mph
(NW 7 kph)
- 3SM
15:24
Overcast
Fog And Mist
52°F / 11°C 48°F / 9°C 88% 29.65 in
(1004 mb)
NW 3.5 mph
(NW 6 kph)
- 2 1/2SM
15:13
Overcast
Fog And Mist
52°F / 11°C 48°F / 9°C 88% 29.65 in
(1004 mb)
Calm - 3SM
14:53
Overcast
Fog And Mist
50°F / 10°C 46°F / 8°C 88% 29.65 in
(1004 mb)
NNW 3.5 mph
(NNW 6 kph)
0.00 in
(0.00 mm)
2 1/2SM
14:30
Overcast
Fog And Mist
48°F / 9°C 46°F / 8°C 94% 29.68 in
(1005 mb)
Calm 0.00 in
(0.00 mm)
2SM
13:53
Overcast
Light Rain
48°F / 9°C 45°F / 7°C 87% 29.71 in
(1006 mb)
Calm 0.04 in
(1.02 mm)
1 1/2SM
13:45
Overcast
Light Rain
48°F / 9°C 45°F / 7°C 87% 29.71 in
(1006 mb)
NNW 4.6 mph
(NNW 7 kph)
0.04 in
(1.02 mm)
1 1/4SM
13:35
Overcast
Light Rain
48°F / 9°C 46°F / 8°C 94% 29.71 in
(1006 mb)
Calm 0.03 in
(0.76 mm)
3/4SM
13:19
Overcast
Light Rain
48°F / 9°C 46°F / 8°C 94% 29.74 in
(1007 mb)
NW 5.8 mph
(NW 9 kph)
0.01 in
(0.25 mm)
1 1/2SM
12:53
Overcast
Light Rain
48°F / 9°C 46°F / 8°C 94% 29.74 in
(1007 mb)
Calm 0.02 in
(0.51 mm)
1 1/2SM
11:53
Overcast
Fog And Mist
48°F / 9°C 45°F / 7°C 87% 29.83 in
(1010 mb)
Calm 0.01 in
(0.25 mm)
3SM
11:38
Overcast
Light Rain
46°F / 8°C 43°F / 6°C 87% 29.83 in
(1010 mb)
Calm 0.01 in
(0.25 mm)
3SM
10:53
Overcast
Hazy
46°F / 8°C 43°F / 6°C 87% 29.86 in
(1011 mb)
Calm 0.00 in
(0.00 mm)
4SM
10:25
Overcast
Hazy
46°F / 8°C 41°F / 5°C 82% 29.89 in
(1012 mb)
Calm - 4SM
09:53
Overcast
Hazy
46°F / 8°C 39°F / 4°C 76% 29.89 in
(1012 mb)
Calm - 4SM
08:53
Overcast
Fog And Mist
43°F / 6°C 39°F / 4°C 87% 29.95 in
(1014 mb)
Calm - 3SM
08:51
Overcast
Fog And Mist
43°F / 6°C 39°F / 4°C 87% 29.95 in
(1014 mb)
NNE 3.5 mph
(NNE 6 kph)
- 3SM
08:44
Overcast
Fog And Mist
43°F / 6°C 39°F / 4°C 87% 29.95 in
(1014 mb)
Calm - 2 1/2SM
08:16
Overcast
Fog And Mist
43°F / 6°C 39°F / 4°C 87% 29.95 in
(1014 mb)
Calm - 3SM
07:53
Overcast
Fog And Mist
41°F / 5°C 39°F / 4°C 93% 29.98 in
(1015 mb)
Calm - 2 1/2SM
07:20
Overcast
Fog And Mist
39°F / 4°C 39°F / 4°C 100% 29.98 in
(1015 mb)
Calm - 2SM
07:00
Overcast
Fog And Mist
39°F / 4°C 37°F / 3°C 93% 29.98 in
(1015 mb)
Calm - 1 3/4SM
06:53
Overcast
Fog And Mist
39°F / 4°C 37°F / 3°C 93% 29.98 in
(1015 mb)
S 3.5 mph
(S 6 kph)
- 1 3/4SM
06:08
Overcast
Fog And Mist
39°F / 4°C 37°F / 3°C 93% 29.98 in
(1015 mb)
Calm - 1 1/2SM
06:00
Overcast
Fog And Mist
39°F / 4°C 37°F / 3°C 93% 29.98 in
(1015 mb)
SSE 3.5 mph
(SSE 6 kph)
- 2SM
05:53
Overcast
Fog And Mist
39°F / 4°C 37°F / 3°C 93% 29.98 in
(1015 mb)
SSE 3.5 mph
(SSE 6 kph)
- 1 3/4SM
05:26
Overcast
Fog And Mist
37°F / 3°C 37°F / 3°C 100% 29.98 in
(1015 mb)
SSE 3.5 mph
(SSE 6 kph)
- 1SM
05:21
Overcast
Fog And Mist
37°F / 3°C 36°F / 2°C 93% 29.98 in
(1015 mb)
SSE 3.5 mph
(SSE 6 kph)
- 3/4SM
04:53
Obscured
Fog
37°F / 3°C 36°F / 2°C 93% 30.01 in
(1016 mb)
Calm - 1/4SM
04:10
Obscured
Fog
39°F / 4°C 37°F / 3°C 93% 30.01 in
(1016 mb)
Calm - 1/4SM
03:58
Overcast
Fog And Mist
39°F / 4°C 37°F / 3°C 93% 30.01 in
(1016 mb)
Calm - 3/4SM
03:53
Overcast
Fog And Mist
39°F / 4°C 37°F / 3°C 93% 30.01 in
(1016 mb)
Calm - 1 3/4SM
03:44
Overcast
Fog And Mist
39°F / 4°C 37°F / 3°C 93% 30.01 in
(1016 mb)
Calm - 4SM
03:31
Overcast
Fog And Mist
39°F / 4°C 37°F / 3°C 93% 30.01 in
(1016 mb)
Calm - 1 3/4SM
03:24
Overcast
Fog And Mist
39°F / 4°C 37°F / 3°C 93% 30.01 in
(1016 mb)
Calm - 2SM
02:58
Overcast
Fog And Mist
39°F / 4°C 37°F / 3°C 93% 30.04 in
(1017 mb)
Calm - 1 3/4SM
02:53
Overcast
Fog And Mist
39°F / 4°C 37°F / 3°C 93% 30.04 in
(1017 mb)
Calm - 2 1/2SM
02:42
Overcast
Fog And Mist
39°F / 4°C 37°F / 3°C 93% 30.04 in
(1017 mb)
Calm - 4SM
02:26
Overcast
Fog And Mist
39°F / 4°C 37°F / 3°C 93% 30.04 in
(1017 mb)
Calm - 2 1/2SM
02:03
Overcast
Fog And Mist
39°F / 4°C 37°F / 3°C 93% 30.06 in
(1018 mb)
Calm - 3SM
01:53
Overcast
Fog And Mist
39°F / 4°C 37°F / 3°C 93% 30.06 in
(1018 mb)
Calm - 2 1/2SM
01:42
Overcast
Fog And Mist
39°F / 4°C 37°F / 3°C 93% 30.06 in
(1018 mb)
Calm - 2 1/2SM
00:53
Overcast
Fog And Mist
39°F / 4°C 37°F / 3°C 93% 30.09 in
(1019 mb)
Calm - 4SM
Time Weather Temperature Dewpoint Humidity Pressure Winds Precip Visibility


Weather for websites

WeatherForYou.com, LLC is not responsible for any damages or problems caused by this service. Current weather conditions are obtained from the closest station including government and personal stations which may have varying degrees of accuracy. Weather forecasts are derived from the NOAA NDFD. Like all things, this site belongs to Jesus Christ... He just trusts me to maintain it. If you have any questions or comments email webmaster@weatherforyou.com

Copyright © 2015, WeatherForYou.com LLC. All rights reserved.